Weather History for Rawlins, WY

Change the Weather History Date:

Saturday, November 9, 2013

  Actual Average Record
Temperature  
Mean Temperature 44 °F 33 °F  
Max Temperature 55 °F 44 °F 62 °F (2007)
Min Temperature 33 °F 22 °F -9 °F (1966)
Degree Days  
Heating Degree Days 21 32  
Month to date heating degree days 260 268  
Since 1 July heating degree days 1249 1327  
Cooling Degree Days 0 0  
Month to date cooling degree days 0 0  
Year to date cooling degree days 371 186  
Moisture  
Dew Point 22 °F    
Average Humidity 47    
Maximum Humidity 69    
Minimum Humidity 24    
Precipitation  
Precipitation 0.00 in 0.02 in 0.27 in (1997)
Month to date precipitation T 0.19  
Year to date precipitation 7.65 8.46  
Sea Level Pressure  
Sea Level Pressure 30.10 in    
Wind  
Wind Speed 13 mph (WSW)    
Max Wind Speed 24 mph    
Max Gust Speed 29 mph    
Visibility 10 miles    
Events      
T = Trace of Precipitation, MM = Missing Value Source: NWS Daily Summary

Daily Weather History Graph

Daily Weather History Graph

Search for Another Location

Airport:

Trip Planner

Search our weather history database for the weather conditions in past years. The results will help you decide how hot, cold, wet, or windy it might be!

Date:

Astronomy

Nov. 09, 2013 Rise Set
Actual Time 6:51 AM MST 4:53 PM MST
Civil Twilight 6:21 AM MST 5:23 PM MST
Nautical Twilight 5:48 AM MST 5:56 PM MST
Astronomical Twilight 5:15 AM MST 6:29 PM MST
Moon 12:29 PM MST (11/9) 11:28 PM MST (11/9)
Length of Visible Light 11h 01m
Length of Day
10h 02m
Waxing Crescent, 45% of the Moon is Illuminated
Nov 9
Waxing Crescent
Nov 9
First Quarter
Nov 17
Full
Nov 25
Last Quarter
Dec 2
New

Hourly Weather History & Observations

Time (MST) Temp. Windchill Dew Point Humidity Pressure Visibility Wind Dir Wind Speed Gust Speed Precip Events Conditions
12:53 AM 35.1 °F 27.9 °F 25.0 °F 67% 30.02 in 10.0 mi WSW 9.2 mph - N/A   Clear
1:53 AM 34.0 °F 27.2 °F 25.0 °F 70% 30.02 in 10.0 mi WSW 8.1 mph - N/A   Mostly Cloudy
2:53 AM 35.1 °F 25.9 °F 25.0 °F 67% 30.04 in 10.0 mi SW 13.8 mph - N/A   Mostly Cloudy
3:53 AM 35.1 °F 25.5 °F 24.1 °F 64% 30.05 in 10.0 mi WSW 15.0 mph - N/A   Mostly Cloudy
4:53 AM 35.1 °F 28.6 °F 24.1 °F 64% 30.07 in 10.0 mi WSW 8.1 mph - N/A   Scattered Clouds
5:53 AM 36.0 °F 27.1 °F 24.1 °F 62% 30.08 in 10.0 mi WSW 13.8 mph - N/A   Clear
6:53 AM 36.0 °F 27.5 °F 24.1 °F 62% 30.10 in 10.0 mi WSW 12.7 mph - N/A   Clear
7:53 AM 37.9 °F 30.0 °F 24.1 °F 57% 30.11 in 10.0 mi WSW 12.7 mph - N/A   Clear
8:53 AM 45.0 °F 38.9 °F 24.1 °F 44% 30.09 in 10.0 mi WSW 12.7 mph - N/A   Clear
9:53 AM 48.0 °F - 24.1 °F 39% 30.09 in 10.0 mi WSW 19.6 mph 27.6 mph N/A   Clear
10:53 AM 51.1 °F - 24.1 °F 35% 30.09 in 10.0 mi WSW 16.1 mph 23.0 mph N/A   Clear
11:53 AM 52.0 °F - 23.0 °F 32% 30.08 in 10.0 mi WSW 16.1 mph 27.6 mph N/A   Clear
12:53 PM 54.0 °F - 21.9 °F 29% 30.07 in 10.0 mi West 17.3 mph 25.3 mph N/A   Clear
1:53 PM 54.0 °F - 21.9 °F 29% 30.07 in 10.0 mi WSW 16.1 mph 25.3 mph N/A   Clear
2:53 PM 55.0 °F - 19.9 °F 25% 30.07 in 10.0 mi West 17.3 mph 27.6 mph N/A   Clear
3:53 PM 53.1 °F - 21.0 °F 29% 30.08 in 10.0 mi WSW 12.7 mph - N/A   Clear
4:53 PM 48.9 °F - 19.0 °F 31% 30.11 in 10.0 mi West 15.0 mph - N/A   Clear
5:53 PM 43.0 °F 39.5 °F 19.0 °F 38% 30.16 in 10.0 mi SW 5.8 mph 20.7 mph N/A   Clear
6:53 PM 41.0 °F 34.3 °F 19.0 °F 41% 30.18 in 10.0 mi SW 11.5 mph - N/A   Clear
7:53 PM 39.9 °F 33.4 °F 19.9 °F 45% 30.18 in 10.0 mi WSW 10.4 mph - N/A   Clear
8:53 PM 39.9 °F 33.9 °F 21.0 °F 47% 30.14 in 10.0 mi WSW 9.2 mph - N/A   Clear
9:53 PM 39.0 °F 34.0 °F 21.0 °F 49% 30.15 in 10.0 mi WSW 6.9 mph - N/A   Clear
10:53 PM 39.0 °F 32.8 °F 21.0 °F 49% 30.15 in 10.0 mi WSW 9.2 mph - N/A   Clear
11:53 PM 37.0 °F 29.3 °F 21.0 °F 52% 30.15 in 10.0 mi WSW 11.5 mph - N/A   Clear